Time,TemperatureF,DewpointF,PressureIn,WindDirection,WindDirectionDegrees,WindSpeedMPH,WindSpeedGustMPH,Humidity,HourlyPrecipIn,Conditions,Clouds,dailyrainin,SoftwareType,DateUTC
2014-02-07 00:02:00,-4.8,-10.4,30.27,NE,37,0.0,0.0,76,0.00,CLR,SKC,0.00,WeatherDisplay:10.37,2014-02-07 07:02:00,
2014-02-07 00:07:00,-4.8,-10.2,30.27,NE,37,0.0,0.0,77,0.00,CLR,SKC,0.00,WeatherDisplay:10.37,2014-02-07 07:07:00,
2014-02-07 00:12:00,-4.8,-10.2,30.26,NE,37,0.0,0.0,77,0.00,CLR,SKC,0.00,WeatherDisplay:10.37,2014-02-07 07:12:00,
2014-02-07 00:17:00,-4.8,-9.9,30.26,NE,37,0.0,0.0,78,0.00,CLR,SKC,0.00,WeatherDisplay:10.37,2014-02-07 07:17:00,
2014-02-07 00:22:00,-4.8,-9.9,30.26,NE,37,0.0,0.0,78,0.00,CLR,SKC,0.00,WeatherDisplay:10.37,2014-02-07 07:22:00,
2014-02-07 00:27:00,-4.8,-9.7,30.25,NE,37,0.0,0.0,79,0.00,CLR,SKC,0.00,WeatherDisplay:10.37,2014-02-07 07:27:00,
2014-02-07 00:32:00,-4.8,-9.7,30.25,NE,37,0.0,0.0,79,0.00,CLR,SKC,0.00,WeatherDisplay:10.37,2014-02-07 07:32:00,
2014-02-07 00:37:00,-4.8,-9.7,30.25,NE,37,0.0,0.0,79,0.00,CLR,SKC,0.00,WeatherDisplay:10.37,2014-02-07 07:37:00,
2014-02-07 00:42:00,-4.8,-9.4,30.24,NE,37,0.0,0.0,80,0.00,CLR,SKC,0.00,WeatherDisplay:10.37,2014-02-07 07:42:00,
2014-02-07 00:47:00,-4.8,-9.7,30.24,NE,37,0.0,0.0,79,0.00,CLR,SKC,0.00,WeatherDisplay:10.37,2014-02-07 07:47:00,
2014-02-07 00:52:00,-4.8,-9.4,30.24,NE,37,0.0,0.0,80,0.00,CLR,SKC,0.00,WeatherDisplay:10.37,2014-02-07 07:52:00,
2014-02-07 00:57:00,-4.7,-9.3,30.23,NE,37,0.0,0.0,80,0.00,CLR,SKC,0.00,WeatherDisplay:10.37,2014-02-07 07:57:00,
2014-02-07 01:02:00,-4.7,-9.3,30.23,NE,37,0.0,0.0,80,0.00,CLR,SKC,0.00,WeatherDisplay:10.37,2014-02-07 08:02:00,
2014-02-07 01:07:00,-4.6,-9.2,30.23,NE,37,0.0,0.0,80,0.00,CLR,SKC,0.00,WeatherDisplay:10.37,2014-02-07 08:07:00,
2014-02-07 01:12:00,-4.5,-9.1,30.23,NE,37,0.0,0.0,80,0.00,CLR,SKC,0.00,WeatherDisplay:10.37,2014-02-07 08:12:00,
2014-02-07 01:17:00,-4.4,-8.8,30.22,NE,37,0.0,0.0,81,0.00,CLR,SKC,0.00,WeatherDisplay:10.37,2014-02-07 08:17:00,
2014-02-07 01:22:00,-4.4,-8.8,30.22,NE,37,0.0,0.0,81,0.00,CLR,SKC,0.00,WeatherDisplay:10.37,2014-02-07 08:22:00,
2014-02-07 01:27:00,-4.3,-8.7,30.22,NE,37,0.0,0.0,81,0.00,CLR,SKC,0.00,WeatherDisplay:10.37,2014-02-07 08:27:00,
2014-02-07 01:32:00,-4.3,-8.7,30.21,NE,37,0.0,0.0,81,0.00,CLR,SKC,0.00,WeatherDisplay:10.37,2014-02-07 08:32:00,
2014-02-07 01:37:00,-4.3,-8.7,30.21,NE,37,0.0,0.0,81,0.00,CLR,SKC,0.00,WeatherDisplay:10.37,2014-02-07 08:37:00,
2014-02-07 01:42:00,-4.2,-8.6,30.21,NE,37,0.0,0.0,81,0.00,CLR,SKC,0.00,WeatherDisplay:10.37,2014-02-07 08:42:00,
2014-02-07 01:47:00,-4.2,-8.6,30.21,NE,37,0.0,0.0,81,0.00,CLR,SKC,0.00,WeatherDisplay:10.37,2014-02-07 08:47:00,
2014-02-07 01:52:00,-4.2,-8.6,30.20,NE,37,0.0,0.0,81,0.00,CLR,SKC,0.00,WeatherDisplay:10.37,2014-02-07 08:52:00,
2014-02-07 01:57:00,-4.2,-8.6,30.20,NE,37,0.0,0.0,81,0.00,CLR,SKC,0.00,WeatherDisplay:10.37,2014-02-07 08:57:00,
2014-02-07 02:02:00,-4.2,-8.6,30.20,NE,37,0.0,0.0,81,0.00,CLR,SKC,0.00,WeatherDisplay:10.37,2014-02-07 09:02:00,
2014-02-07 02:07:00,-4.2,-8.6,30.20,NE,37,0.0,0.0,81,0.00,CLR,SKC,0.00,WeatherDisplay:10.37,2014-02-07 09:07:00,
2014-02-07 02:12:00,-4.2,-8.6,30.20,NE,37,0.0,0.0,81,0.00,CLR,SKC,0.00,WeatherDisplay:10.37,2014-02-07 09:12:00,
2014-02-07 02:17:00,-4.2,-8.6,30.20,NE,37,0.0,0.0,81,0.00,CLR,SKC,0.00,WeatherDisplay:10.37,2014-02-07 09:17:00,
2014-02-07 02:22:00,-4.2,-8.6,30.19,NE,37,0.0,0.0,81,0.00,CLR,SKC,0.00,WeatherDisplay:10.37,2014-02-07 09:22:00,
2014-02-07 02:27:00,-4.2,-8.3,30.19,NE,37,0.0,0.0,82,0.00,CLR,SKC,0.00,WeatherDisplay:10.37,2014-02-07 09:27:00,
2014-02-07 02:32:00,-4.2,-8.3,30.20,NE,37,0.0,0.0,82,0.00,CLR,SKC,0.00,WeatherDisplay:10.37,2014-02-07 09:32:00,
2014-02-07 02:37:00,-4.1,-8.2,30.19,NE,37,0.0,0.0,82,0.00,CLR,SKC,0.00,WeatherDisplay:10.37,2014-02-07 09:37:00,
2014-02-07 02:42:00,-4.2,-8.3,30.19,NE,37,0.0,0.0,82,0.00,CLR,SKC,0.00,WeatherDisplay:10.37,2014-02-07 09:42:00,
2014-02-07 02:47:00,-4.1,-8.2,30.19,NE,37,0.0,0.0,82,0.00,CLR,SKC,0.00,WeatherDisplay:10.37,2014-02-07 09:47:00,
2014-02-07 02:52:00,-4.1,-8.2,30.19,NE,37,0.0,0.0,82,0.00,CLR,SKC,0.00,WeatherDisplay:10.37,2014-02-07 09:52:00,
2014-02-07 02:57:00,-4.1,-8.2,30.19,NE,37,0.0,0.0,82,0.00,CLR,SKC,0.00,WeatherDisplay:10.37,2014-02-07 09:57:00,
2014-02-07 03:02:00,-4.1,-8.2,30.19,NE,37,0.0,0.0,82,0.00,CLR,SKC,0.00,WeatherDisplay:10.37,2014-02-07 10:02:00,
2014-02-07 03:07:00,-4.1,-8.2,30.19,NE,37,0.0,0.0,82,0.00,CLR,SKC,0.00,WeatherDisplay:10.37,2014-02-07 10:07:00,
2014-02-07 03:12:00,-4.0,-8.1,30.19,NE,37,0.0,0.0,82,0.00,CLR,SKC,0.00,WeatherDisplay:10.37,2014-02-07 10:12:00,
2014-02-07 03:17:00,-4.0,-8.1,30.18,NE,37,0.0,0.0,82,0.00,CLR,SKC,0.00,WeatherDisplay:10.37,2014-02-07 10:17:00,
2014-02-07 03:22:00,-4.1,-8.2,30.18,NE,37,0.0,0.0,82,0.00,CLR,SKC,0.00,WeatherDisplay:10.37,2014-02-07 10:22:00,
2014-02-07 03:27:00,-4.1,-8.2,30.18,NE,37,0.0,0.0,82,0.00,CLR,SKC,0.00,WeatherDisplay:10.37,2014-02-07 10:27:00,
2014-02-07 03:32:00,-4.1,-8.2,30.18,NE,37,0.0,0.0,82,0.00,CLR,SKC,0.00,WeatherDisplay:10.37,2014-02-07 10:32:00,
2014-02-07 03:37:00,-4.1,-8.2,30.18,NE,37,0.0,0.0,82,0.00,CLR,SKC,0.00,WeatherDisplay:10.37,2014-02-07 10:37:00,
2014-02-07 03:42:00,-4.1,-8.2,30.18,NE,37,0.0,0.0,82,0.00,CLR,SKC,0.00,WeatherDisplay:10.37,2014-02-07 10:42:00,
2014-02-07 03:47:00,-4.1,-8.2,30.18,NE,37,0.0,0.0,82,0.00,CLR,SKC,0.00,WeatherDisplay:10.37,2014-02-07 10:47:00,
2014-02-07 03:52:00,-4.1,-8.2,30.18,NE,37,0.0,0.0,82,0.00,CLR,SKC,0.00,WeatherDisplay:10.37,2014-02-07 10:52:00,
2014-02-07 03:57:00,-4.1,-8.2,30.18,NE,37,0.0,0.0,82,0.00,CLR,SKC,0.00,WeatherDisplay:10.37,2014-02-07 10:57:00,
2014-02-07 04:02:00,-4.1,-8.2,30.18,NE,37,0.0,0.0,82,0.00,CLR,SKC,0.00,WeatherDisplay:10.37,2014-02-07 11:02:00,
2014-02-07 04:07:00,-4.2,-8.3,30.18,NE,37,0.0,0.0,82,0.00,CLR,SKC,0.00,WeatherDisplay:10.37,2014-02-07 11:07:00,
2014-02-07 04:12:00,-4.3,-8.4,30.18,NE,37,0.0,0.0,82,0.00,CLR,SKC,0.00,WeatherDisplay:10.37,2014-02-07 11:12:00,
2014-02-07 04:17:00,-4.3,-8.4,30.17,NE,37,0.0,0.0,82,0.00,CLR,SKC,0.00,WeatherDisplay:10.37,2014-02-07 11:17:00,
2014-02-07 04:22:00,-4.3,-8.4,30.18,NE,37,0.0,0.0,82,0.00,CLR,SKC,0.00,WeatherDisplay:10.37,2014-02-07 11:22:00,
2014-02-07 04:27:00,-4.3,-8.4,30.18,NE,37,0.0,0.0,82,0.00,CLR,SKC,0.00,WeatherDisplay:10.37,2014-02-07 11:27:00,
2014-02-07 04:32:00,-4.3,-8.4,30.18,NE,37,0.0,0.0,82,0.00,CLR,SKC,0.00,WeatherDisplay:10.37,2014-02-07 11:32:00,
2014-02-07 04:37:00,-4.2,-8.3,30.18,NE,37,0.0,0.0,82,0.00,CLR,SKC,0.00,WeatherDisplay:10.37,2014-02-07 11:37:00,
2014-02-07 04:42:00,-4.2,-8.3,30.17,NE,37,0.0,0.0,82,0.00,CLR,SKC,0.00,WeatherDisplay:10.37,2014-02-07 11:42:00,
2014-02-07 04:47:00,-4.1,-8.2,30.17,NE,37,0.0,0.0,82,0.00,CLR,SKC,0.00,WeatherDisplay:10.37,2014-02-07 11:47:00,
2014-02-07 04:52:00,-4.1,-8.2,30.17,NE,37,0.0,0.0,82,0.00,CLR,SKC,0.00,WeatherDisplay:10.37,2014-02-07 11:52:00,
2014-02-07 04:57:00,-4.0,-8.1,30.17,NE,37,0.0,0.0,82,0.00,CLR,SKC,0.00,WeatherDisplay:10.37,2014-02-07 11:57:00,
2014-02-07 05:02:00,-4.0,-8.1,30.17,NE,37,0.0,0.0,82,0.00,CLR,SKC,0.00,WeatherDisplay:10.37,2014-02-07 12:02:00,
2014-02-07 05:07:00,-4.0,-8.1,30.17,NE,37,0.0,0.0,82,0.00,CLR,SKC,0.00,WeatherDisplay:10.37,2014-02-07 12:07:00,
2014-02-07 05:12:00,-4.0,-8.1,30.17,NE,37,0.0,0.0,82,0.00,CLR,SKC,0.00,WeatherDisplay:10.37,2014-02-07 12:12:00,
2014-02-07 05:17:00,-3.9,-8.0,30.17,NE,37,0.0,0.0,82,0.00,CLR,SKC,0.00,WeatherDisplay:10.37,2014-02-07 12:17:00,
2014-02-07 05:22:00,-3.9,-8.0,30.16,NE,37,0.0,0.0,82,0.00,CLR,SKC,0.00,WeatherDisplay:10.37,2014-02-07 12:22:00,
2014-02-07 05:27:00,-3.9,-8.0,30.16,NE,37,0.0,0.0,82,0.00,CLR,SKC,0.00,WeatherDisplay:10.37,2014-02-07 12:27:00,
2014-02-07 05:32:00,-3.8,-7.9,30.16,NE,37,0.0,0.0,82,0.00,CLR,SKC,0.00,WeatherDisplay:10.37,2014-02-07 12:32:00,
2014-02-07 05:37:00,-3.8,-7.9,30.16,NE,37,0.0,0.0,82,0.00,CLR,SKC,0.00,WeatherDisplay:10.37,2014-02-07 12:37:00,
2014-02-07 05:42:00,-3.7,-7.8,30.15,NE,37,0.0,0.0,82,0.00,CLR,SKC,0.00,WeatherDisplay:10.37,2014-02-07 12:42:00,
2014-02-07 05:47:00,-3.6,-7.5,30.16,NE,37,0.0,0.0,83,0.00,CLR,SKC,0.00,WeatherDisplay:10.37,2014-02-07 12:47:00,
2014-02-07 05:52:00,-3.6,-7.7,30.15,NE,37,0.0,0.0,82,0.00,CLR,SKC,0.00,WeatherDisplay:10.37,2014-02-07 12:52:00,
2014-02-07 05:57:00,-3.6,-7.7,30.16,NE,37,0.0,0.0,82,0.00,CLR,SKC,0.00,WeatherDisplay:10.37,2014-02-07 12:57:00,
2014-02-07 06:02:00,-3.6,-7.7,30.15,NE,37,0.0,0.0,82,0.00,CLR,SKC,0.00,WeatherDisplay:10.37,2014-02-07 13:02:00,
2014-02-07 06:07:00,-3.6,-7.7,30.15,NE,37,0.0,0.0,82,0.00,CLR,SKC,0.00,WeatherDisplay:10.37,2014-02-07 13:07:00,
2014-02-07 06:12:00,-3.6,-7.7,30.15,NE,37,0.0,0.0,82,0.00,CLR,SKC,0.00,WeatherDisplay:10.37,2014-02-07 13:12:00,
2014-02-07 06:17:00,-3.6,-7.7,30.15,NE,37,0.0,0.0,82,0.00,CLR,SKC,0.00,WeatherDisplay:10.37,2014-02-07 13:17:00,
2014-02-07 06:22:00,-3.6,-7.7,30.15,NE,37,0.0,0.0,82,0.00,CLR,SKC,0.00,WeatherDisplay:10.37,2014-02-07 13:22:00,
2014-02-07 06:27:00,-3.5,-7.6,30.15,NE,37,0.0,0.0,82,0.00,CLR,SKC,0.00,WeatherDisplay:10.37,2014-02-07 13:27:00,
2014-02-07 06:32:00,-3.5,-7.6,30.15,NE,37,0.0,0.0,82,0.00,CLR,SKC,0.00,WeatherDisplay:10.37,2014-02-07 13:32:00,
2014-02-07 06:37:00,-3.4,-7.5,30.15,NE,37,0.0,0.0,82,0.00,CLR,SKC,0.00,WeatherDisplay:10.37,2014-02-07 13:37:00,
2014-02-07 06:42:00,-3.4,-7.5,30.14,NE,37,0.0,0.0,82,0.00,CLR,SKC,0.00,WeatherDisplay:10.37,2014-02-07 13:42:00,
2014-02-07 06:47:00,-3.4,-7.5,30.14,NE,37,0.0,0.0,82,0.00,CLR,SKC,0.00,WeatherDisplay:10.37,2014-02-07 13:47:00,
2014-02-07 06:52:00,-3.4,-7.5,30.14,NE,37,0.0,0.0,82,0.00,CLR,SKC,0.00,WeatherDisplay:10.37,2014-02-07 13:52:00,
2014-02-07 06:57:00,-3.3,-7.4,30.14,NE,37,0.0,0.0,82,0.00,CLR,SKC,0.00,WeatherDisplay:10.37,2014-02-07 13:57:00,
2014-02-07 07:02:00,-3.3,-7.4,30.14,NE,37,0.0,0.0,82,0.00,CLR,SKC,0.00,WeatherDisplay:10.37,2014-02-07 14:02:00,
2014-02-07 07:07:00,-3.3,-7.4,30.14,NE,37,0.0,0.0,82,0.00,CLR,SKC,0.00,WeatherDisplay:10.37,2014-02-07 14:07:00,
2014-02-07 07:12:00,-3.3,-7.4,30.13,NE,37,0.0,0.0,82,0.00,CLR,SKC,0.00,WeatherDisplay:10.37,2014-02-07 14:12:00,
2014-02-07 07:17:00,-3.2,-7.3,30.13,NE,37,0.0,0.0,82,0.00,CLR,SKC,0.00,WeatherDisplay:10.37,2014-02-07 14:17:00,
2014-02-07 07:22:00,-3.2,-7.3,30.13,NE,37,0.0,0.0,82,0.00,CLR,SKC,0.00,WeatherDisplay:10.37,2014-02-07 14:22:00,
2014-02-07 07:27:00,-3.1,-7.2,30.13,NE,37,0.0,0.0,82,0.00,CLR,SKC,0.00,WeatherDisplay:10.37,2014-02-07 14:27:00,
2014-02-07 07:32:00,-3.0,-6.9,30.13,NE,37,0.0,0.0,83,0.00,CLR,SKC,0.00,WeatherDisplay:10.37,2014-02-07 14:32:00,
2014-02-07 07:37:00,-2.9,-7.0,30.13,NE,37,0.0,0.0,82,0.00,CLR,SKC,0.00,WeatherDisplay:10.37,2014-02-07 14:37:00,
2014-02-07 07:42:00,-2.9,-7.0,30.13,NE,37,0.0,0.0,82,0.00,CLR,SKC,0.00,WeatherDisplay:10.37,2014-02-07 14:42:00,
2014-02-07 07:47:00,-2.8,-6.7,30.13,NE,37,0.0,0.0,83,0.00,CLR,SKC,0.00,WeatherDisplay:10.37,2014-02-07 14:47:00,
2014-02-07 07:52:00,-2.7,-6.6,30.13,NE,37,0.0,0.0,83,0.00,CLR,SKC,0.00,WeatherDisplay:10.37,2014-02-07 14:52:00,
2014-02-07 07:57:00,-2.6,-6.5,30.12,NE,37,0.0,0.0,83,0.00,CLR,SKC,0.00,WeatherDisplay:10.37,2014-02-07 14:57:00,
2014-02-07 08:02:00,-2.6,-6.5,30.13,NE,37,0.0,0.0,83,0.00,CLR,SKC,0.00,WeatherDisplay:10.37,2014-02-07 15:02:00,
2014-02-07 08:07:00,-2.6,-6.5,30.13,NE,37,0.0,0.0,83,0.00,CLR,SKC,0.00,WeatherDisplay:10.37,2014-02-07 15:07:00,
2014-02-07 08:12:00,-2.5,-6.4,30.13,NE,37,0.0,0.0,83,0.00,CLR,SKC,0.00,WeatherDisplay:10.37,2014-02-07 15:12:00,
2014-02-07 08:17:00,-2.5,-6.4,30.13,NE,37,0.0,0.0,83,0.00,CLR,SKC,0.00,WeatherDisplay:10.37,2014-02-07 15:17:00,
2014-02-07 08:22:00,-2.4,-6.3,30.13,NE,37,0.0,0.0,83,0.00,CLR,SKC,0.00,WeatherDisplay:10.37,2014-02-07 15:22:00,
2014-02-07 08:27:00,-2.3,-6.2,30.14,NE,37,0.0,0.0,83,0.00,CLR,SKC,0.00,WeatherDisplay:10.37,2014-02-07 15:27:00,
2014-02-07 08:32:00,-2.2,-6.1,30.14,NE,37,0.0,0.0,83,0.00,CLR,SKC,0.00,WeatherDisplay:10.37,2014-02-07 15:32:00,
2014-02-07 08:37:00,-2.2,-6.1,30.14,NE,37,0.0,0.0,83,0.00,CLR,SKC,0.00,WeatherDisplay:10.37,2014-02-07 15:37:00,
2014-02-07 08:42:00,-2.1,-6.0,30.14,NE,37,0.0,0.0,83,0.00,CLR,SKC,0.00,WeatherDisplay:10.37,2014-02-07 15:42:00,
2014-02-07 08:47:00,-2.1,-6.0,30.14,NE,37,0.0,0.0,83,0.00,CLR,SKC,0.00,WeatherDisplay:10.37,2014-02-07 15:47:00,
2014-02-07 08:52:00,-2.1,-6.0,30.14,NE,37,0.0,0.0,83,0.00,CLR,SKC,0.00,WeatherDisplay:10.37,2014-02-07 15:52:00,
2014-02-07 08:57:00,-2.0,-5.9,30.14,NE,37,0.0,0.0,83,0.00,CLR,SKC,0.00,WeatherDisplay:10.37,2014-02-07 15:57:00,
2014-02-07 09:02:00,-2.0,-5.9,30.15,NE,37,0.0,0.0,83,0.00,CLR,SKC,0.00,WeatherDisplay:10.37,2014-02-07 16:02:00,
2014-02-07 09:07:00,-1.9,-5.8,30.15,NE,37,0.0,0.0,83,0.00,CLR,SKC,0.00,WeatherDisplay:10.37,2014-02-07 16:07:00,
2014-02-07 09:12:00,-1.9,-5.8,30.14,NE,37,0.0,0.0,83,0.00,CLR,SKC,0.00,WeatherDisplay:10.37,2014-02-07 16:12:00,
2014-02-07 09:17:00,-1.8,-5.7,30.14,NE,37,0.0,0.0,83,0.00,CLR,SKC,0.00,WeatherDisplay:10.37,2014-02-07 16:17:00,
2014-02-07 09:22:00,-1.7,-5.6,30.14,NE,37,0.0,0.0,83,0.00,CLR,SKC,0.00,WeatherDisplay:10.37,2014-02-07 16:22:00,
2014-02-07 09:27:00,-1.6,-5.5,30.14,NE,37,0.0,0.0,83,0.00,CLR,SKC,0.00,WeatherDisplay:10.37,2014-02-07 16:27:00,
2014-02-07 09:32:00,-1.6,-5.5,30.14,NE,37,0.0,0.0,83,0.00,CLR,SKC,0.00,WeatherDisplay:10.37,2014-02-07 16:32:00,
2014-02-07 09:37:00,-1.6,-5.5,30.14,NE,37,0.0,0.0,83,0.00,CLR,SKC,0.00,WeatherDisplay:10.37,2014-02-07 16:37:00,
2014-02-07 09:42:00,-1.3,-5.2,30.14,NE,37,0.0,0.0,83,0.00,CLR,SKC,0.00,WeatherDisplay:10.37,2014-02-07 16:42:00,
2014-02-07 09:47:00,-1.0,-4.9,30.14,NE,37,0.0,0.0,83,0.00,CLR,SKC,0.00,WeatherDisplay:10.37,2014-02-07 16:47:00,
2014-02-07 09:52:00,-0.7,-4.6,30.14,NE,37,0.0,0.0,83,0.00,CLR,SKC,0.00,WeatherDisplay:10.37,2014-02-07 16:52:00,
2014-02-07 09:57:00,-0.3,-4.2,30.14,NE,37,0.0,0.0,83,0.00,CLR,SKC,0.00,WeatherDisplay:10.37,2014-02-07 16:57:00,
2014-02-07 10:02:00,0.0,-3.9,30.14,NE,37,0.0,0.0,83,0.00,CLR,SKC,0.00,WeatherDisplay:10.37,2014-02-07 17:02:00,
2014-02-07 10:07:00,0.2,-4.0,30.15,NE,37,0.0,0.0,82,0.00,CLR,SKC,0.00,WeatherDisplay:10.37,2014-02-07 17:07:00,
2014-02-07 10:12:00,0.2,-4.3,30.14,NE,37,0.0,0.0,81,0.00,CLR,SKC,0.00,WeatherDisplay:10.37,2014-02-07 17:12:00,
2014-02-07 10:17:00,0.5,-4.0,30.15,ENE,63,1.1,1.1,81,0.00,CLR,SKC,0.00,WeatherDisplay:10.37,2014-02-07 17:17:00,
2014-02-07 10:22:00,0.6,-3.9,30.15,ENE,63,0.0,0.0,81,0.00,CLR,SKC,0.00,WeatherDisplay:10.37,2014-02-07 17:22:00,
2014-02-07 10:27:00,0.5,-4.0,30.15,ENE,63,0.0,0.0,81,0.00,CLR,SKC,0.00,WeatherDisplay:10.37,2014-02-07 17:27:00,
2014-02-07 10:32:00,0.5,-4.2,30.14,ENE,63,0.0,0.0,80,0.00,CLR,SKC,0.00,WeatherDisplay:10.37,2014-02-07 17:32:00,
2014-02-07 10:37:00,0.8,-3.7,30.15,ENE,61,0.0,0.0,81,0.00,CLR,SKC,0.00,WeatherDisplay:10.37,2014-02-07 17:37:00,
2014-02-07 10:42:00,0.9,-3.6,30.15,ENE,61,0.0,0.0,81,0.00,CLR,SKC,0.00,WeatherDisplay:10.37,2014-02-07 17:42:00,
2014-02-07 10:47:00,1.0,-3.7,30.15,ENE,61,0.0,0.0,80,0.00,CLR,SKC,0.00,WeatherDisplay:10.37,2014-02-07 17:47:00,
2014-02-07 10:52:00,1.1,-3.6,30.16,ENE,61,0.0,0.0,80,0.00,CLR,SKC,0.00,WeatherDisplay:10.37,2014-02-07 17:52:00,
2014-02-07 10:57:00,1.3,-3.4,30.16,ENE,61,0.0,0.0,80,0.00,CLR,SKC,0.00,WeatherDisplay:10.37,2014-02-07 17:57:00,
2014-02-07 11:02:00,1.3,-3.4,30.16,ENE,61,0.0,0.0,80,0.00,CLR,SKC,0.00,WeatherDisplay:10.37,2014-02-07 18:02:00,
2014-02-07 11:07:00,1.3,-3.4,30.16,ENE,61,0.0,0.0,80,0.00,CLR,SKC,0.00,WeatherDisplay:10.37,2014-02-07 18:07:00,
2014-02-07 11:12:00,1.4,-3.1,30.16,ENE,61,0.0,0.0,81,0.00,CLR,SKC,0.00,WeatherDisplay:10.37,2014-02-07 18:12:00,
2014-02-07 11:17:00,1.5,-3.2,30.17,ENE,61,0.0,0.0,80,0.00,CLR,SKC,0.00,WeatherDisplay:10.37,2014-02-07 18:17:00,
2014-02-07 11:22:00,1.7,-3.0,30.16,ENE,61,0.0,0.0,80,0.00,CLR,SKC,0.00,WeatherDisplay:10.37,2014-02-07 18:22:00,
2014-02-07 11:27:00,1.9,-2.6,30.16,ENE,61,0.0,0.0,81,0.00,CLR,SKC,0.00,WeatherDisplay:10.37,2014-02-07 18:27:00,
2014-02-07 11:32:00,2.0,-2.5,30.16,ENE,61,0.0,0.0,81,0.00,CLR,SKC,0.00,WeatherDisplay:10.37,2014-02-07 18:32:00,
2014-02-07 11:37:00,2.1,-2.4,30.16,ENE,61,0.0,0.0,81,0.00,CLR,SKC,0.00,WeatherDisplay:10.37,2014-02-07 18:37:00,
2014-02-07 11:42:00,2.3,-1.9,30.16,ENE,61,0.0,0.0,82,0.00,CLR,SKC,0.00,WeatherDisplay:10.37,2014-02-07 18:42:00,
2014-02-07 11:47:00,2.6,-1.6,30.16,ENE,61,0.0,0.2,82,0.00,CLR,SKC,0.00,WeatherDisplay:10.37,2014-02-07 18:47:00,
2014-02-07 11:52:00,2.7,-1.8,30.16,ENE,61,0.0,0.0,81,0.00,CLR,SKC,0.00,WeatherDisplay:10.37,2014-02-07 18:52:00,
2014-02-07 11:57:00,2.8,-1.7,30.16,ENE,61,0.0,0.0,81,0.00,CLR,SKC,0.00,WeatherDisplay:10.37,2014-02-07 18:57:00,
2014-02-07 12:02:00,2.9,-1.6,30.16,ENE,61,0.0,0.0,81,0.00,CLR,SKC,0.00,WeatherDisplay:10.37,2014-02-07 19:02:00,
2014-02-07 12:07:00,3.2,-1.3,30.16,ENE,61,0.0,0.0,81,0.00,CLR,SKC,0.00,WeatherDisplay:10.37,2014-02-07 19:07:00,
2014-02-07 12:12:00,3.6,-1.2,30.16,SW,225,2.3,2.3,80,0.00,CLR,SKC,0.00,WeatherDisplay:10.37,2014-02-07 19:12:00,
2014-02-07 12:17:00,3.8,-1.0,30.16,SW,227,1.1,1.1,80,0.00,CLR,SKC,0.00,WeatherDisplay:10.37,2014-02-07 19:17:00,
2014-02-07 12:22:00,4.5,-0.3,30.16,SW,227,1.1,0.0,80,0.00,CLR,SKC,0.00,WeatherDisplay:10.37,2014-02-07 19:22:00,
2014-02-07 12:27:00,5.1,0.0,30.15,East,85,2.3,2.3,79,0.00,CLR,SKC,0.00,WeatherDisplay:10.37,2014-02-07 19:27:00,
2014-02-07 12:32:00,5.2,-0.2,30.15,East,85,1.1,1.1,78,0.00,CLR,SKC,0.00,WeatherDisplay:10.37,2014-02-07 19:32:00,
2014-02-07 12:37:00,5.3,-0.1,30.15,East,85,1.1,1.1,78,0.00,CLR,SKC,0.00,WeatherDisplay:10.37,2014-02-07 19:37:00,
2014-02-07 12:42:00,5.5,0.1,30.15,East,85,1.0,1.0,78,0.00,CLR,SKC,0.00,WeatherDisplay:10.37,2014-02-07 19:42:00,
2014-02-07 12:47:00,5.5,-0.1,30.15,East,85,2.0,2.0,77,0.00,CLR,SKC,0.00,WeatherDisplay:10.37,2014-02-07 19:47:00,
2014-02-07 12:52:00,5.5,-0.1,30.15,East,85,1.1,1.1,77,0.00,CLR,SKC,0.00,WeatherDisplay:10.37,2014-02-07 19:52:00,
2014-02-07 12:57:00,5.3,-0.6,30.15,NE,50,0.0,0.0,76,0.00,CLR,SKC,0.00,WeatherDisplay:10.37,2014-02-07 19:57:00,
2014-02-07 13:02:00,5.6,0.2,30.15,NE,49,1.1,1.1,78,0.00,CLR,SKC,0.00,WeatherDisplay:10.37,2014-02-07 20:02:00,
2014-02-07 13:07:00,5.9,0.2,30.15,NE,50,1.1,1.1,77,0.00,CLR,SKC,0.00,WeatherDisplay:10.37,2014-02-07 20:07:00,
2014-02-07 13:12:00,6.2,0.3,30.15,NE,51,1.1,1.1,76,0.00,CLR,SKC,0.00,WeatherDisplay:10.37,2014-02-07 20:12:00,
2014-02-07 13:17:00,6.5,0.5,30.15,NE,51,1.1,1.1,76,0.00,CLR,SKC,0.00,WeatherDisplay:10.37,2014-02-07 20:17:00,
2014-02-07 13:22:00,6.6,0.4,30.15,NE,45,1.1,1.1,75,0.00,CLR,SKC,0.00,WeatherDisplay:10.37,2014-02-07 20:22:00,
2014-02-07 13:27:00,6.6,0.4,30.15,NE,44,1.1,1.1,75,0.00,CLR,SKC,0.00,WeatherDisplay:10.37,2014-02-07 20:27:00,
2014-02-07 13:32:00,6.8,0.6,30.15,NE,44,1.1,1.1,75,0.00,CLR,SKC,0.00,WeatherDisplay:10.37,2014-02-07 20:32:00,
2014-02-07 13:37:00,6.9,0.6,30.15,ENE,59,1.1,1.1,75,0.00,CLR,SKC,0.00,WeatherDisplay:10.37,2014-02-07 20:37:00,
2014-02-07 13:42:00,7.0,0.7,30.14,NE,52,1.1,1.1,75,0.00,CLR,SKC,0.00,WeatherDisplay:10.37,2014-02-07 20:42:00,
2014-02-07 13:47:00,7.1,0.8,30.14,NE,39,1.1,1.1,75,0.00,CLR,SKC,0.00,WeatherDisplay:10.37,2014-02-07 20:47:00,
2014-02-07 13:52:00,7.1,0.8,30.14,NE,38,1.1,1.1,75,0.00,CLR,SKC,0.00,WeatherDisplay:10.37,2014-02-07 20:52:00,
2014-02-07 13:57:00,7.1,0.8,30.14,NE,51,2.3,2.3,75,0.00,CLR,SKC,0.00,WeatherDisplay:10.37,2014-02-07 20:57:00,
2014-02-07 14:02:00,7.3,1.3,30.14,NE,51,2.3,2.3,76,0.00,CLR,SKC,0.00,WeatherDisplay:10.37,2014-02-07 21:02:00,
2014-02-07 14:07:00,7.4,1.1,30.13,NE,51,2.3,2.3,75,0.00,CLR,SKC,0.00,WeatherDisplay:10.37,2014-02-07 21:07:00,
2014-02-07 14:12:00,7.3,1.0,30.14,NE,51,1.1,1.1,75,0.00,CLR,SKC,0.00,WeatherDisplay:10.37,2014-02-07 21:12:00,
2014-02-07 14:17:00,7.2,0.7,30.14,NNE,30,2.3,2.3,74,0.00,CLR,SKC,0.00,WeatherDisplay:10.37,2014-02-07 21:17:00,
2014-02-07 14:22:00,7.4,1.1,30.14,NNE,29,1.1,1.1,75,0.00,CLR,SKC,0.00,WeatherDisplay:10.37,2014-02-07 21:22:00,
2014-02-07 14:27:00,7.6,1.0,30.14,NNE,30,2.3,2.3,74,0.00,CLR,SKC,0.00,WeatherDisplay:10.37,2014-02-07 21:27:00,
2014-02-07 14:32:00,7.9,1.3,30.14,NE,49,1.1,1.2,74,0.00,CLR,SKC,0.00,WeatherDisplay:10.37,2014-02-07 21:32:00,
2014-02-07 14:37:00,8.0,1.4,30.14,NE,50,1.1,1.1,74,0.00,CLR,SKC,0.00,WeatherDisplay:10.37,2014-02-07 21:37:00,
2014-02-07 14:42:00,8.1,1.5,30.14,NE,49,1.1,1.1,74,0.00,CLR,SKC,0.00,WeatherDisplay:10.37,2014-02-07 21:42:00,
2014-02-07 14:47:00,8.4,1.5,30.13,NE,49,1.1,0.0,73,0.00,CLR,SKC,0.00,WeatherDisplay:10.37,2014-02-07 21:47:00,
2014-02-07 14:52:00,8.4,1.5,30.14,NE,50,1.1,1.1,73,0.00,CLR,SKC,0.00,WeatherDisplay:10.37,2014-02-07 21:52:00,
2014-02-07 14:57:00,8.5,1.3,30.14,NE,50,1.1,1.1,72,0.00,CLR,SKC,0.00,WeatherDisplay:10.37,2014-02-07 21:57:00,
2014-02-07 15:02:00,8.5,1.3,30.14,NNE,32,1.1,1.1,72,0.00,CLR,SKC,0.00,WeatherDisplay:10.37,2014-02-07 22:02:00,
2014-02-07 15:07:00,8.7,1.8,30.14,NNE,32,0.0,0.0,73,0.00,CLR,SKC,0.00,WeatherDisplay:10.37,2014-02-07 22:07:00,
2014-02-07 15:12:00,8.8,1.6,30.14,NE,47,1.1,0.0,72,0.00,CLR,SKC,0.00,WeatherDisplay:10.37,2014-02-07 22:12:00,
2014-02-07 15:17:00,8.9,1.7,30.14,NE,47,1.1,0.0,72,0.00,CLR,SKC,0.00,WeatherDisplay:10.37,2014-02-07 22:17:00,
2014-02-07 15:22:00,9.0,2.1,30.14,NE,47,0.0,0.0,73,0.00,CLR,SKC,0.00,WeatherDisplay:10.37,2014-02-07 22:22:00,
2014-02-07 15:27:00,9.0,2.1,30.15,NE,47,1.0,1.0,73,0.00,CLR,SKC,0.00,WeatherDisplay:10.37,2014-02-07 22:27:00,
2014-02-07 15:32:00,9.0,2.1,30.15,NE,47,1.1,0.0,73,0.00,CLR,SKC,0.00,WeatherDisplay:10.37,2014-02-07 22:32:00,
2014-02-07 15:37:00,9.1,2.2,30.14,NE,47,1.1,1.1,73,0.00,CLR,SKC,0.00,WeatherDisplay:10.37,2014-02-07 22:37:00,
2014-02-07 15:42:00,9.1,2.2,30.14,NE,47,0.0,0.1,73,0.00,CLR,SKC,0.00,WeatherDisplay:10.37,2014-02-07 22:42:00,
2014-02-07 15:47:00,9.3,2.1,30.14,NE,47,0.0,0.0,72,0.00,CLR,SKC,0.00,WeatherDisplay:10.37,2014-02-07 22:47:00,
2014-02-07 15:52:00,9.3,2.4,30.14,NE,47,1.1,0.0,73,0.00,CLR,SKC,0.00,WeatherDisplay:10.37,2014-02-07 22:52:00,
2014-02-07 15:57:00,9.2,2.3,30.14,NE,47,1.1,0.0,73,0.00,CLR,SKC,0.00,WeatherDisplay:10.37,2014-02-07 22:57:00,
2014-02-07 16:02:00,9.2,2.3,30.14,NE,47,1.1,1.1,73,0.00,CLR,SKC,0.00,WeatherDisplay:10.37,2014-02-07 23:02:00,
2014-02-07 16:07:00,9.2,2.0,30.14,NE,47,1.1,1.1,72,0.00,CLR,SKC,0.00,WeatherDisplay:10.37,2014-02-07 23:07:00,
2014-02-07 16:12:00,9.1,1.9,30.14,NE,47,1.0,1.0,72,0.00,CLR,SKC,0.00,WeatherDisplay:10.37,2014-02-07 23:12:00,
2014-02-07 16:17:00,8.9,2.0,30.14,NE,47,1.1,1.1,73,0.00,CLR,SKC,0.00,WeatherDisplay:10.37,2014-02-07 23:17:00,
2014-02-07 16:22:00,8.8,1.9,30.14,NE,47,0.0,0.0,73,0.00,CLR,SKC,0.00,WeatherDisplay:10.37,2014-02-07 23:22:00,
2014-02-07 16:27:00,8.7,2.1,30.14,NE,47,0.0,0.0,74,0.00,CLR,SKC,0.00,WeatherDisplay:10.37,2014-02-07 23:27:00,
2014-02-07 16:32:00,8.6,2.0,30.14,NE,47,0.0,0.0,74,0.00,CLR,SKC,0.00,WeatherDisplay:10.37,2014-02-07 23:32:00,
2014-02-07 16:37:00,8.6,2.0,30.15,NE,47,0.0,0.0,74,0.00,CLR,SKC,0.00,WeatherDisplay:10.37,2014-02-07 23:37:00,
2014-02-07 16:42:00,8.6,2.0,30.15,NE,47,0.0,0.0,74,0.00,CLR,SKC,0.00,WeatherDisplay:10.37,2014-02-07 23:42:00,
2014-02-07 16:47:00,8.6,2.0,30.15,NE,47,0.0,0.0,74,0.00,CLR,SKC,0.00,WeatherDisplay:10.37,2014-02-07 23:47:00,
2014-02-07 16:52:00,8.5,1.9,30.15,NE,47,0.0,0.0,74,0.00,CLR,SKC,0.00,WeatherDisplay:10.37,2014-02-07 23:52:00,
2014-02-07 16:57:00,8.3,1.7,30.15,NE,47,0.0,0.0,74,0.00,CLR,SKC,0.00,WeatherDisplay:10.37,2014-02-07 23:57:00,
2014-02-07 17:02:00,8.1,1.5,30.14,NE,47,0.0,0.0,74,0.00,CLR,SKC,0.00,WeatherDisplay:10.37,2014-02-08 00:02:00,
2014-02-07 17:07:00,7.8,1.5,30.15,NE,47,0.0,0.0,75,0.00,CLR,SKC,0.00,WeatherDisplay:10.37,2014-02-08 00:07:00,
2014-02-07 17:12:00,7.7,1.4,30.15,NE,47,0.0,0.0,75,0.00,CLR,SKC,0.00,WeatherDisplay:10.37,2014-02-08 00:12:00,
2014-02-07 17:17:00,7.2,0.9,30.15,NE,47,0.0,0.0,75,0.00,CLR,SKC,0.00,WeatherDisplay:10.37,2014-02-08 00:17:00,
2014-02-07 17:22:00,6.9,0.9,30.15,NE,47,0.0,0.0,76,0.00,CLR,SKC,0.00,WeatherDisplay:10.37,2014-02-08 00:22:00,
2014-02-07 17:27:00,6.6,0.6,30.15,NE,47,0.0,0.0,76,0.00,CLR,SKC,0.00,WeatherDisplay:10.37,2014-02-08 00:27:00,
2014-02-07 17:32:00,6.2,0.5,30.15,NE,47,0.0,0.0,77,0.00,CLR,SKC,0.00,WeatherDisplay:10.37,2014-02-08 00:32:00,
2014-02-07 17:37:00,5.9,0.2,30.15,NE,47,0.0,0.0,77,0.00,CLR,SKC,0.00,WeatherDisplay:10.37,2014-02-08 00:37:00,
2014-02-07 17:42:00,5.5,0.1,30.15,NE,47,0.0,0.0,78,0.00,CLR,SKC,0.00,WeatherDisplay:10.37,2014-02-08 00:42:00,
2014-02-07 17:47:00,5.0,-0.1,30.16,NE,47,0.0,0.0,79,0.00,CLR,SKC,0.00,WeatherDisplay:10.37,2014-02-08 00:47:00,
2014-02-07 17:52:00,4.6,-0.5,30.15,NE,47,0.0,0.0,79,0.00,CLR,SKC,0.00,WeatherDisplay:10.37,2014-02-08 00:52:00,
2014-02-07 17:57:00,4.2,-0.9,30.15,NE,47,0.0,0.0,79,0.00,CLR,SKC,0.00,WeatherDisplay:10.37,2014-02-08 00:57:00,
2014-02-07 18:02:00,3.7,-1.1,30.15,NE,47,0.0,0.0,80,0.00,CLR,SKC,0.00,WeatherDisplay:10.37,2014-02-08 01:02:00,
2014-02-07 18:07:00,3.4,-1.4,30.15,NE,47,0.0,0.0,80,0.00,CLR,SKC,0.00,WeatherDisplay:10.37,2014-02-08 01:07:00,
2014-02-07 18:12:00,2.9,-1.9,30.16,NE,47,0.0,0.0,80,0.00,CLR,SKC,0.00,WeatherDisplay:10.37,2014-02-08 01:12:00,
2014-02-07 18:17:00,2.7,-1.8,30.16,NE,47,0.0,0.0,81,0.00,CLR,SKC,0.00,WeatherDisplay:10.37,2014-02-08 01:17:00,
2014-02-07 18:22:00,2.4,-2.1,30.16,NE,47,0.0,0.0,81,0.00,CLR,SKC,0.00,WeatherDisplay:10.37,2014-02-08 01:22:00,
2014-02-07 18:27:00,2.0,-2.2,30.16,NE,47,0.0,0.0,82,0.00,CLR,SKC,0.00,WeatherDisplay:10.37,2014-02-08 01:27:00,
2014-02-07 18:32:00,1.7,-2.3,30.16,NE,47,0.0,0.0,83,0.00,CLR,SKC,0.00,WeatherDisplay:10.37,2014-02-08 01:32:00,
2014-02-07 18:37:00,1.5,-2.5,30.16,NE,47,0.0,0.0,83,0.00,CLR,SKC,0.00,WeatherDisplay:10.37,2014-02-08 01:37:00,
2014-02-07 18:42:00,1.3,-2.7,30.16,NE,47,0.0,0.0,83,0.00,CLR,SKC,0.00,WeatherDisplay:10.37,2014-02-08 01:42:00,
2014-02-07 18:47:00,1.2,-2.8,30.16,NE,47,0.0,0.0,83,0.00,CLR,SKC,0.00,WeatherDisplay:10.37,2014-02-08 01:47:00,
2014-02-07 18:52:00,1.0,-3.0,30.15,NE,47,0.0,0.0,83,0.00,CLR,SKC,0.00,WeatherDisplay:10.37,2014-02-08 01:52:00,
2014-02-07 18:57:00,0.8,-2.9,30.16,NE,47,0.0,0.0,84,0.00,CLR,SKC,0.00,WeatherDisplay:10.37,2014-02-08 01:57:00,
2014-02-07 19:02:00,0.7,-3.0,30.16,NE,47,0.0,0.0,84,0.00,CLR,SKC,0.00,WeatherDisplay:10.37,2014-02-08 02:02:00,
2014-02-07 19:07:00,0.7,-2.7,30.16,NE,47,0.0,0.0,85,0.00,CLR,SKC,0.00,WeatherDisplay:10.37,2014-02-08 02:07:00,
2014-02-07 19:12:00,0.8,-2.7,30.16,NE,47,0.0,0.0,85,0.00,CLR,SKC,0.00,WeatherDisplay:10.37,2014-02-08 02:12:00,
2014-02-07 19:17:00,1.0,-2.5,30.15,NE,47,0.0,0.0,85,0.00,CLR,SKC,0.00,WeatherDisplay:10.37,2014-02-08 02:17:00,
2014-02-07 19:22:00,1.1,-2.4,30.16,NE,47,0.0,0.0,85,0.00,CLR,SKC,0.00,WeatherDisplay:10.37,2014-02-08 02:22:00,
2014-02-07 19:27:00,1.4,-2.1,30.15,NE,47,0.0,0.0,85,0.00,CLR,SKC,0.00,WeatherDisplay:10.37,2014-02-08 02:27:00,
2014-02-07 19:32:00,1.5,-2.0,30.15,NE,47,0.0,0.0,85,0.00,CLR,SKC,0.00,WeatherDisplay:10.37,2014-02-08 02:32:00,
2014-02-07 19:37:00,1.6,-1.9,30.15,NE,47,0.0,0.0,85,0.00,CLR,SKC,0.00,WeatherDisplay:10.37,2014-02-08 02:37:00,
2014-02-07 19:42:00,1.8,-1.7,30.15,NE,47,0.0,0.0,85,0.00,CLR,SKC,0.00,WeatherDisplay:10.37,2014-02-08 02:42:00,
2014-02-07 19:47:00,1.9,-1.6,30.15,NE,47,0.0,0.0,85,0.00,CLR,SKC,0.00,WeatherDisplay:10.37,2014-02-08 02:47:00,
2014-02-07 19:52:00,2.1,-1.1,30.15,NE,47,0.0,0.0,86,0.00,CLR,SKC,0.00,WeatherDisplay:10.37,2014-02-08 02:52:00,
2014-02-07 19:57:00,2.2,-1.3,30.15,NE,47,0.0,0.0,85,0.00,CLR,SKC,0.00,WeatherDisplay:10.37,2014-02-08 02:57:00,
2014-02-07 20:02:00,2.3,-1.2,30.15,NE,47,0.0,0.0,85,0.00,CLR,SKC,0.00,WeatherDisplay:10.37,2014-02-08 03:02:00,
2014-02-07 20:07:00,2.3,-1.2,30.15,NE,47,0.0,0.0,85,0.00,CLR,SKC,0.00,WeatherDisplay:10.37,2014-02-08 03:07:00,
2014-02-07 20:12:00,2.2,-1.5,30.15,NE,47,0.0,0.0,84,0.00,CLR,SKC,0.00,WeatherDisplay:10.37,2014-02-08 03:12:00,
2014-02-07 20:17:00,2.0,-1.7,30.15,NE,47,0.0,0.0,84,0.00,CLR,SKC,0.00,WeatherDisplay:10.37,2014-02-08 03:17:00,
2014-02-07 20:22:00,2.0,-1.7,30.15,NE,47,0.0,0.0,84,0.00,CLR,SKC,0.00,WeatherDisplay:10.37,2014-02-08 03:22:00,
2014-02-07 20:27:00,2.0,-1.7,30.15,NE,47,0.0,0.0,84,0.00,CLR,SKC,0.00,WeatherDisplay:10.37,2014-02-08 03:27:00,
2014-02-07 20:32:00,2.0,-1.7,30.15,NE,47,0.0,0.0,84,0.00,CLR,SKC,0.00,WeatherDisplay:10.37,2014-02-08 03:32:00,
2014-02-07 20:37:00,2.1,-1.6,30.15,NE,47,0.0,0.0,84,0.00,CLR,SKC,0.00,WeatherDisplay:10.37,2014-02-08 03:37:00,
2014-02-07 20:42:00,2.2,-1.5,30.14,NE,47,0.0,0.0,84,0.00,CLR,SKC,0.00,WeatherDisplay:10.37,2014-02-08 03:42:00,
2014-02-07 20:47:00,2.3,-1.2,30.14,NE,47,0.0,0.0,85,0.00,CLR,SKC,0.00,WeatherDisplay:10.37,2014-02-08 03:47:00,
2014-02-07 20:52:00,2.6,-0.9,30.14,NE,47,0.0,0.0,85,0.00,CLR,SKC,0.00,WeatherDisplay:10.37,2014-02-08 03:52:00,
2014-02-07 20:57:00,2.8,-0.7,30.14,NE,47,0.0,0.0,85,0.00,CLR,SKC,0.00,WeatherDisplay:10.37,2014-02-08 03:57:00,
2014-02-07 21:02:00,2.9,-0.6,30.14,NE,47,0.0,0.0,85,0.00,CLR,SKC,0.00,WeatherDisplay:10.37,2014-02-08 04:02:00,
2014-02-07 21:07:00,3.1,-0.1,30.13,NE,47,0.0,0.0,86,0.00,CLR,SKC,0.00,WeatherDisplay:10.37,2014-02-08 04:07:00,
2014-02-07 21:12:00,3.2,0.0,30.13,NE,47,0.0,0.0,86,0.00,CLR,SKC,0.00,WeatherDisplay:10.37,2014-02-08 04:12:00,
2014-02-07 21:17:00,3.4,0.2,30.12,NE,47,0.0,0.0,86,0.00,CLR,SKC,0.00,WeatherDisplay:10.37,2014-02-08 04:17:00,
2014-02-07 21:22:00,3.4,-0.1,30.12,NE,47,0.0,0.0,85,0.00,CLR,SKC,0.00,WeatherDisplay:10.37,2014-02-08 04:22:00,
2014-02-07 21:27:00,3.5,0.0,30.12,NE,47,0.0,0.0,85,0.00,CLR,SKC,0.00,WeatherDisplay:10.37,2014-02-08 04:27:00,
2014-02-07 21:32:00,3.6,0.1,30.12,NE,47,0.0,0.0,85,0.00,CLR,SKC,0.00,WeatherDisplay:10.37,2014-02-08 04:32:00,
2014-02-07 21:37:00,3.7,0.2,30.11,NE,47,0.0,0.0,85,0.00,CLR,SKC,0.00,WeatherDisplay:10.37,2014-02-08 04:37:00,
2014-02-07 21:42:00,3.8,0.3,30.11,NE,47,0.0,0.0,85,0.00,CLR,SKC,0.00,WeatherDisplay:10.37,2014-02-08 04:42:00,
2014-02-07 21:47:00,4.0,0.5,30.11,NE,47,0.0,0.0,85,0.00,CLR,SKC,0.00,WeatherDisplay:10.37,2014-02-08 04:47:00,
2014-02-07 21:52:00,4.0,0.5,30.11,NE,47,0.0,0.0,85,0.00,CLR,SKC,0.00,WeatherDisplay:10.37,2014-02-08 04:52:00,
2014-02-07 21:57:00,3.8,0.0,30.11,NE,47,0.0,0.0,84,0.00,CLR,SKC,0.00,WeatherDisplay:10.37,2014-02-08 04:57:00,
2014-02-07 22:01:00,3.7,-0.1,30.11,NE,47,0.0,0.0,84,0.00,CLR,SKC,0.00,WeatherDisplay:10.37,2014-02-08 05:01:00,
2014-02-07 22:02:00,3.6,-0.2,30.11,NE,47,0.0,0.0,84,0.00,CLR,SKC,0.00,WeatherDisplay:10.37,2014-02-08 05:02:00,
2014-02-07 22:04:00,3.6,-0.2,30.11,NE,47,0.0,0.0,84,0.00,CLR,SKC,0.00,WeatherDisplay:10.37,2014-02-08 05:04:00,
2014-02-07 22:05:00,3.6,-0.2,30.11,NE,47,0.0,0.0,84,0.00,CLR,SKC,0.00,WeatherDisplay:10.37,2014-02-08 05:05:00,
2014-02-07 22:08:00,3.5,-0.2,30.11,NE,47,0.0,0.0,84,0.00,CLR,SKC,0.00,WeatherDisplay:10.37,2014-02-08 05:08:00,
2014-02-07 22:13:00,3.5,-0.2,30.11,NE,47,0.0,0.0,84,0.00,CLR,SKC,0.00,WeatherDisplay:10.37,2014-02-08 05:13:00,
2014-02-07 22:14:00,3.4,-0.3,30.11,NE,47,0.0,0.0,84,0.00,CLR,SKC,0.00,WeatherDisplay:10.37,2014-02-08 05:14:00,
2014-02-07 22:19:00,3.4,-0.3,30.10,NE,47,0.0,0.0,84,0.00,CLR,SKC,0.00,WeatherDisplay:10.37,2014-02-08 05:19:00,
2014-02-07 22:24:00,3.3,-0.4,30.10,NE,47,0.0,0.0,84,0.00,CLR,SKC,0.00,WeatherDisplay:10.37,2014-02-08 05:24:00,
2014-02-07 22:29:00,3.3,-0.4,30.10,NE,47,0.0,0.0,84,0.00,CLR,SKC,0.00,WeatherDisplay:10.37,2014-02-08 05:29:00,
2014-02-07 22:34:00,3.3,-0.4,30.10,NE,47,0.0,0.0,84,0.00,CLR,SKC,0.00,WeatherDisplay:10.37,2014-02-08 05:34:00,
2014-02-07 22:39:00,3.2,-0.5,30.09,NE,47,0.0,0.0,84,0.00,CLR,SKC,0.00,WeatherDisplay:10.37,2014-02-08 05:39:00,
2014-02-07 22:44:00,3.2,-0.5,30.09,NE,47,0.0,0.0,84,0.00,CLR,SKC,0.00,WeatherDisplay:10.37,2014-02-08 05:44:00,
2014-02-07 22:49:00,3.2,-0.3,30.09,NE,47,0.0,0.0,85,0.00,CLR,SKC,0.00,WeatherDisplay:10.37,2014-02-08 05:49:00,
2014-02-07 22:54:00,3.2,-0.3,30.09,NE,47,0.0,0.0,85,0.00,CLR,SKC,0.00,WeatherDisplay:10.37,2014-02-08 05:54:00,
2014-02-07 22:59:00,3.3,-0.2,30.09,NE,47,0.0,0.0,85,0.00,CLR,SKC,0.00,WeatherDisplay:10.37,2014-02-08 05:59:00,
2014-02-07 23:02:00,3.3,-0.2,30.09,NE,47,0.0,0.0,85,0.00,CLR,SKC,0.00,WeatherDisplay:10.37,2014-02-08 06:02:00,
2014-02-07 23:07:00,3.4,-0.1,30.09,NE,47,0.0,0.0,85,0.00,CLR,SKC,0.00,WeatherDisplay:10.37,2014-02-08 06:07:00,
2014-02-07 23:12:00,3.5,0.0,30.09,NE,47,0.0,0.0,85,0.00,CLR,SKC,0.00,WeatherDisplay:10.37,2014-02-08 06:12:00,
2014-02-07 23:17:00,3.5,0.0,30.09,NE,47,0.0,0.0,85,0.00,CLR,SKC,0.00,WeatherDisplay:10.37,2014-02-08 06:17:00,
2014-02-07 23:22:00,3.6,0.1,30.08,NE,47,0.0,0.0,85,0.00,CLR,SKC,0.00,WeatherDisplay:10.37,2014-02-08 06:22:00,
2014-02-07 23:27:00,3.8,0.3,30.08,NE,47,0.0,0.0,85,0.00,CLR,SKC,0.00,WeatherDisplay:10.37,2014-02-08 06:27:00,
2014-02-07 23:32:00,3.8,0.3,30.09,NE,47,0.0,0.0,85,0.00,CLR,SKC,0.00,WeatherDisplay:10.37,2014-02-08 06:32:00,
2014-02-07 23:37:00,3.8,0.3,30.09,NE,47,0.0,0.0,85,0.00,CLR,SKC,0.00,WeatherDisplay:10.37,2014-02-08 06:37:00,
2014-02-07 23:42:00,3.7,-0.1,30.08,NE,47,0.0,0.0,84,0.00,CLR,SKC,0.00,WeatherDisplay:10.37,2014-02-08 06:42:00,
2014-02-07 23:47:00,3.5,-0.2,30.08,NE,47,0.0,0.0,84,0.00,CLR,SKC,0.00,WeatherDisplay:10.37,2014-02-08 06:47:00,
2014-02-07 23:52:00,3.4,-0.3,30.09,NE,47,0.0,0.0,84,0.00,CLR,SKC,0.00,WeatherDisplay:10.37,2014-02-08 06:52:00,
2014-02-07 23:57:00,3.5,0.0,30.09,NE,47,0.0,0.0,85,0.00,CLR,SKC,0.00,WeatherDisplay:10.37,2014-02-08 06:57:00,